Regional Weather Roundup
Issued by NWS

Home | Current Version | Previous Version | Text Only | Print | Product List | Glossary On
Versions: 1 2 3 4 5 6 7 8 9 10 11 12 13 14 15 16 17 18 19 20 21 22 23 24 25 26 27 28 29 30 31 32 33 34 35 36 37 38 39 40 41 42 43 44 45 46 47 48 49 50
000
ASUS43 KDMX 061006
RWRIA

WEATHER ROUNDUP FOR IOWA
NATIONAL WEATHER SERVICE DES MOINES IA
400 AM CST TUE DEC 06 2016

NOTE: "FAIR" INDICATES FEW OR NO CLOUDS BELOW 12,000 FEET WITH NO
SIGNIFICANT WEATHER AND/OR OBSTRUCTIONS TO VISIBILITY.

* - THESE STATIONS ARE NOT NWS STATIONS...THUS NOT UNDER NWS
QUALITY CONTROL.  THEY ALSO DO NOT REPORT WEATHER SUCH
AS PRECIPITATION OR FOG.

IAZ001>003-012>014-020>022-031>034-043>046-061100-
   NORTHWEST IOWA

CITY           SKY/WX    TMP DP  RH WIND       PRES   REMARKS
CARROLL *      CLOUDY    28  21  74 NW14G21   29.88F WCI  17
CHEROKEE *     MOCLDY    24  19  80 W12       29.89S WCI  13
DENISON *      CLOUDY    27  19  74 NW12      29.88S WCI  16
LE MARS *      PTCLDY    21  14  73 W13G25    29.92R WCI   9
ORANGE CITY *  CLOUDY    21  18  86 NW18G24   29.87R WCI   6
SHELDON *      MOCLDY    19  14  79 W24       29.84R WCI   2
SIOUX CITY     MOCLDY    23  11  60 NW23G29   29.93R WCI   7
SPENCER        CLOUDY    22  14  71 W26G35    29.85R WCI   5
STORM LAKE *   CLOUDY    23  18  80 NW22G28   29.86F WCI   8
$$

IAZ055>058-069>071-079>083-090>094-061100-
   SOUTHWEST IOWA

CITY           SKY/WX    TMP DP  RH WIND       PRES   REMARKS
ATLANTIC *     CLOUDY    28  21  74 NW14G21   29.89F WCI  17
AUDUBON *      CLOUDY    28  21  74 NW9G21    29.89F WCI  20
CLARINDA *       N/A     32  23  69 N17G26    29.92F WCI  21
COUNCIL BLFS * CLOUDY    28  19  69 NW16G22   29.91F WCI  17
CRESTON *        N/A     32  27  80 NW21      29.88R WCI  20
HARLAN  *      CLOUDY    28  19  69 NW16G24   29.93F WCI  17
LAMONI         CLOUDY    35  31  85 NW16G25   29.84R WCI  25
RED OAK *      CLOUDY    30  21  69 NW12G25   29.91F WCI  21
SHENANDOAH *   CLOUDY    32  23  69 NW13G22   29.93S WCI  22
$$

IAZ047>049-059>061-072>074-084-061100-
   CENTRAL IOWA

CITY           SKY/WX    TMP DP  RH WIND       PRES   REMARKS
AMES           CLOUDY    32  28  85 NW20G25   29.86R WCI  20
ANKENY *       CLOUDY    34 N/A N/A NW12G18   29.88R WCI  25
BOONE *        LGT SNOW  30  28  93 W17G24    29.85R WCI  18
CHARITON *       N/A     36  34  93 NW18      29.84R FOG     WCI  25
DES MOINES     FLURRIES  34  28  79 NW18G26   29.87R WCI  23
GRINNELL*      CLOUDY    36  35  97 W7        29.81S FOG     WCI  30
KNOXVILLE *    CLOUDY    36  32  87 NW14G22   29.82R WCI  27
MARSHALLTOWN   CLOUDY    33  32  96 NW13      29.81R WCI  24
NEWTON *       CLOUDY    34  32  93 NW15G22   29.83R WCI  24
PELLA *        CLOUDY    36  33  90 NW15G24   29.85R WCI  26
PERRY *        CLOUDY    31  26  81 NW18G28   29.88R WCI  19
$$

IAZ004>006-015-016-023>025-035-036-061100-
   NORTH CENTRAL IOWA

CITY           SKY/WX    TMP DP  RH WIND       PRES   REMARKS
ALGONA *       CLOUDY    27  19  74 W21G28    29.84R WCI  13
CLARION *      CLOUDY    30  27  86 W22       29.84R WCI  17
ESTHERVILLE    CLOUDY    23  16  74 W24       29.81R WCI   7
FORT DODGE *   CLOUDY    28  21  74 W13G20    29.87R WCI  18
MASON CITY     CLOUDY    31  27  85 W16       29.81R WCI  20
FOREST CITY *  CLOUDY    30  27  86 W12       29.81R WCI  21
WEBSTER CITY * CLOUDY    32  28  86 W17G25    29.83R WCI  21
IOWA FALLS *   CLOUDY    33  30  90 W18       29.82R WCI  21
$$

IAZ007>011-017>019-026>030-037>042-050>054-066-061100-
   NORTHEAST IOWA

CITY           SKY/WX    TMP DP  RH WIND       PRES   REMARKS
CEDAR RAPIDS   CLOUDY    33  33 100 SE5       29.80S FOG     WCI  29
CHARLES CITY * FLURRIES  32  32 100 W10       29.78F WCI  24
CLINTON *      FOG       32  32 100 E5        29.83F VSB 1/2 WCI  27
DECORAH *      MIX PCPN  32  32 100 S8        29.77S WCI  25
DUBUQUE        SNOW      31  31 100 S6        29.82S VSB 1/2 WCI  25
MONTICELLO *   CLOUDY    32  32 100 SE6       29.81F FOG     WCI  26
OELWEIN *      FOG       32  32 100 S12       29.79F VSB 1/2 WCI  23
WATERLOO       FOG       33  32  96 S6        29.79S VSB 1   WCI  28
$$

IAZ064-065-067-068-078-061100-
   EAST CENTRAL IOWA

CITY           SKY/WX    TMP DP  RH WIND       PRES   REMARKS
DAVENPORT      FOG       32  32 100 E7        29.81F VSB 1/2 WCI  26
IOWA CITY      CLOUDY    35  32  88 SE5       29.83F WCI  31
MUSCATINE *    CLOUDY    37  34  87 CALM      29.82F
QUAD CITIES    FOG       34  32  92 E7        29.81F VSB 3/4 WCI  28
$$

IAZ062-063-075>077-085>089-095>099-061100-
   SOUTHEAST IOWA

CITY           SKY/WX    TMP DP  RH WIND       PRES   REMARKS
BURLINGTON     CLOUDY    34  33  96 CALM      29.80F
FAIRFIELD *    CLOUDY    36  34  93 SW3       29.80F FOG
FORT MADISON * CLOUDY    36  34  93 CALM      29.81F FOG
KEOKUK *       CLOUDY    36  34  93 CALM      29.80S
OSKALOOSA *    CLOUDY    36  35  96 SW5       29.83R FOG     WCI  32
CENTERVILLE *  CLOUDY    36  36 100 CALM      29.83R
OTTUMWA        CLOUDY    36  34  92 S5        29.82R FOG     WCI  32
WASHINGTON *   CLOUDY    36  34  93 CALM      29.82F FOG
$$

ABBREVIATIONS USED IN REMARKS
   TC - TEMPERATURES IN CELSIUS
  WCI - WIND CHILL INDEX
   HX - HEAT INDEX
  VSB - VISIBILITY
$$





USA.gov is the U.S. government's official web portal to all federal, state and local government web resources and services.